Вернуться в каталог

NOAA 16 DEB

АктивенSSO
NORAD 42354·DEBRIS·🇺🇸 United States

Запущен Sep 21, 2000 с Vandenberg Space Force Base

Loading…

Ближайшие Пролёты (ближайшие 24 часа)

TLE

СвежийSource: Space-Track

Эпоха: Sep 14, 2026, 05:45 UTC

1 42354U 00055QW  26257.23989688  .00008063  00000-0  38118-2 0  9993
2 42354  99.1413   8.5246 0024292  81.0127 279.3796 14.19808956533195

Отслеживайте NOAA 16 DEB в реальном времени с AllMySat

Download on the App Store